Location: Kellogg
(38.0159°N, 90.0546°W)
Time: 07:19:10
(UTC+00:00)

Courier 1B Rocket - Pass Details

Date: 18 September 2024
Orbit: 920 x 1201 km, 28.3° (Epoch: 12 October)

Event Time Altitude Azimuth Distance (km) Brightness Sun altitude
Rises 00:56:35 0° 262° (W) 3,788 9.6 -11.1°
Reaches altitude 10° 00:59:41 10° 250° (WSW) 2,882 8.4 -11.7°
Maximum altitude 01:05:22 26° 197° (SSW) 2,007 6.7 -12.8°
Drops below altitude 10° 01:11:22 10° 143° (SE) 3,038 7.1 -13.9°
Enters shadow 01:11:39 - 142° (SE) 3,118 7.2 -14.0°
